Location: Newport
(44.6370°N, 124.0520°W)
Time: 18:37:02
(UTC-08:00)

Envisat - Pass Details

Date: 08 October 2017
Orbit: 764 x 766 km, 98.2° (Epoch: 16 December)

Event Time Altitude Azimuth Distance (km) Brightness Sun altitude
Exits shadow 19:21:42 - 89° (E) 2,365 4.8 -7.6°
Reaches altitude 10° 19:22:00 10° 86° (E) 2,306 4.8 -7.7°
Maximum altitude 19:24:26 14° 58° (ENE) 2,066 4.7 -8.1°
Drops below altitude 10° 19:26:52 10° 29° (NNE) 2,314 5.2 -8.6°
Sets 19:30:19 0° 4° (N) 3,246 6.2 -9.2°
